Regional Weather Roundup
Issued by NWS

Home | Current Version | Previous Version | Graphics & Text | Print | Product List | Glossary On
Versions: 1 2 3 4 5 6 7 8 9 10 11 12 13 14 15 16 17 18 19 20 21 22 23 24 25 26 27 28 29 30 31 32 33 34 35 36 37 38 39 40 41 42 43 44 45 46 47 48 49 50
000
ASUS43 KIND 030059
RWRIN

WEATHER ROUNDUP FOR INDIANA
NATIONAL WEATHER SERVICE INDIANAPOLIS IN
900 PM EDT THU JUL 02 2015

NOTE: "FAIR" INDICATES FEW OR NO CLOUDS BELOW 12,000 FEET WITH NO
SIGNIFICANT WEATHER AND/OR OBSTRUCTIONS TO VISIBILITY.

* - STATION DOES NOT REPORT WEATHER SUCH AS PRECIPITATION OR FOG.

+ - STATION NOT QUALITY CONTROLLED BY THE NATIONAL WEATHER SERVICE.
    USE DATA WITH CAUTION...ESPECIALLY DEWPOINT AND RELATIVE
    HUMIDITY OBSERVATIONS.

INZ001>003-010>013-019-020-030200-
NORTHWEST INDIANA

CITY           SKY/WX    TMP DP  RH WIND       PRES   REMARKS
GARY /AIRPORT/ MOCLDY    61  57  88 NE12      29.98S
KNOX *+        MOCLDY    68  54  60 NE5       29.94S
MONTICELLO +   MOCLDY    71  60  67 NE6       29.91S
RENSSELAER +   MOCLDY    68  63  83 N9        29.93S

$$

LMZ046-743>745-030200-
SOUTHERN LAKE MICHIGAN

STATION/POSITION TIME  TEMP    WIND        PRES    WAVE
                       AIR SEA DIR/SP/G            HT
                 (UTC) (F)     (DEG/KT/KT) (MB)    (FT)
BURNS HARBOR     0000   63      40/ 10/ 15 1015.6R
MICHIGAN CITY    0000   62      20/ 17/ 19   N/A
5NW MICH CITY    0000   63 64   50/ 16/ 19   N/A     5

$$

INZ004-005-014>016-021>024-030200-
NORTH CENTRAL INDIANA

CITY           SKY/WX    TMP DP  RH WIND       PRES   REMARKS
GOSHEN         CLEAR     69  56  62 NE3       29.96R
SOUTH BEND     CLEAR     69  55  60 NE6       29.96S
WARSAW +         N/A     64  55  72 E3        29.95S

$$

INZ006>009-017-018-025>027-030200-
NORTHEAST INDIANA

CITY           SKY/WX    TMP DP  RH WIND       PRES   REMARKS
ANGOLA *+        N/A     68  57  68 E3        29.97R
FORT WAYNE     MOCLDY    69  56  62 E10       29.95S

$$

INZ028-029-035-036-043>045-051>053-030200-
WEST CENTRAL INDIANA

CITY           SKY/WX    TMP DP  RH WIND       PRES   REMARKS
CRAWFORDSVL +  PTCLDY    70  60  69 NE7       29.90R
GREENCASTLE +  CLOUDY    73  61  64 NE3       29.89R
LAFAYETTE      MOCLDY    71  61  70 NE8       29.90R
TERRE HAUTE    MOCLDY    75  69  81 CALM      29.86S

$$

INZ030>032-037>040-046>048-054>057-064-065-030200-
CENTRAL INDIANA

CITY           SKY/WX    TMP DP  RH WIND       PRES   REMARKS
COLUMBUS       PTCLDY    72  66  83 E6        29.87S FOG
FRANKFORT +    PTCLDY    72  63  72 NE8       29.92S
GREENWOOD *+   CLOUDY    73  63  68 E7        29.88S
INDIANAPOLIS   CLOUDY    75  62  64 E14       29.86S
-EAGLE CREEK   PTCLDY    74  63  68 NE12      29.88S
KOKOMO *+      MOCLDY    70  61  73 E8        29.91S
MT COMFORT *+  MOCLDY    72  61  68 NE7       29.90S
SHELBYVILLE    MOCLDY    74  65  73 E8        29.87S

$$

INZ033-034-041-042-049-050-058-059-030200-
EAST CENTRAL INDIANA

CITY           SKY/WX    TMP DP  RH WIND       PRES   REMARKS
MUNCIE         PTCLDY    71  62  73 E9        29.91F

$$

INZ060-061-067>069-081>083-085>088-030200-
SOUTHWEST INDIANA

CITY           SKY/WX    TMP DP  RH WIND       PRES   REMARKS
EVANSVILLE     MOCLDY    76  70  82 N3        29.85R
HUNTINGBURG *+ CLOUDY    73  70  88 N3        29.85R

$$

INZ062-063-066-070>080-084-089>092-030200-
SOUTH CENTRAL AND SOUTHEAST INDIANA

CITY           SKY/WX    TMP DP  RH WIND       PRES   REMARKS
BLOOMINGTON    PTCLDY    75  66  73 NE5       29.86S
MADISON *+     CLOUDY    72  68  88 CALM      29.88S
SEYMOUR +      MOCLDY    73  70  88 E6        29.85F

$$



USA.gov is the U.S. government's official web portal to all federal, state and local government web resources and services.